Вернуться в каталог

STARLINK-34499

АктивенСвязьVLEO
NORAD 64709·PAYLOAD·🇺🇸 United States

Запущен Jun 28, 2025 с Vandenberg Space Force Base

Loading…

Ближайшие Пролёты (ближайшие 24 часа)

TLE

СвежийSource: CelesTrak SupGP

Эпоха: Sep 15, 2026, 04:01 UTC

1 64709C 25142P   26258.16784722 -.00014706  00000+0 -51175-3 0  2589
2 64709  70.0012 195.1558 0003228 273.1800   3.6029 15.29574629    19

Отслеживайте STARLINK-34499 в реальном времени с AllMySat

Download on the App Store